Regional Weather Roundup
Issued by NWS Sioux Falls, SD

Home | Current Version | Previous Version | Graphics & Text | Print | Product List | Glossary Off
Versions: 1 2 3 4 5 6 7 8 9 10 11 12 13 14 15 16 17 18 19 20 21 22 23 24 25 26 27 28 29 30 31 32 33 34 35 36 37 38 39 40 41 42 43 44 45 46 47 48 49 50

000
ASUS43 KFSD 231010
RWRFSD

WEATHER ROUNDUP FOR SE SOUTH DAKOTA/SW MINNESOTA/NW IOWA
NATIONAL WEATHER SERVICE SIOUX FALLS SD
400 AM CST THU NOV 23 2017

NOTE: "FAIR" INDICATES FEW OR NO CLOUDS BELOW 12,000 FEET WITH NO
SIGNIFICANT WEATHER AND OR OBSTRUCTIONS TO VISIBILITY.


SDZ038>040-050-052>070-231100-
SOUTHEAST SOUTH DAKOTA

CITY           SKY/WX    TMP DP  RH WIND       PRES   REMARKS
BROOKINGS      CLOUDY    27  23  85 NW3       29.96S
CHAMBERLAIN    CLEAR     32  32 100 CALM      29.99F
HURON          CLOUDY    22  21  96 NW7       29.99F WCI  13
MADISON        FAIR      28  28 100 NW7       29.97S WCI  21
MITCHELL       CLOUDY    31  27  85 NW3       30.01S
SIOUX FALLS    CLOUDY    34  27  75 NW10      29.97R WCI  26
WINNER         FAIR      41  36  82 SW7       30.01F
YANKTON        CLOUDY    37  31  78 NW5       29.99F
$$

MNZ071-072-080-081-089-090-097-098-231100-
SOUTHWEST MINNESOTA

CITY           SKY/WX    TMP DP  RH WIND       PRES   REMARKS
FAIRMONT       CLOUDY    28  21  75 W9        29.93S WCI  19
JACKSON        CLOUDY    32  23  69 NW13      29.95R WCI  22
LUVERNE        CLOUDY    30  23  74 NW6       29.96S WCI  24
MARSHALL       CLOUDY    28  23  81 NW8       29.96F WCI  20
MONTEVIDEO     CLOUDY    25  19  80 N7        29.95F WCI  17
PIPESTONE      CLOUDY    27  21  80 N5        29.95R WCI  21
REDWOOD FALLS  CLOUDY    27  19  72 NW8       29.94S WCI  19
WINDOM           N/A     27  14  59 W9        29.94R WCI  17
WORTHINGTON    CLOUDY    27  21  78 NW7       29.95S WCI  19
$$

IAZ001>003-012>014-020>022-031-032-NEZ013-014-SDZ071-231100-
NORTHWEST IOWA

CITY           SKY/WX    TMP DP  RH WIND       PRES   REMARKS
CHEROKEE       CLOUDY    31  24  77 CALM      29.96S
DENISON        CLOUDY    30  21  69 W3        29.98S
ESTHERVILLE    CLOUDY    29  22  75 NW12      29.93R WCI  19
LE MARS        CLOUDY    28  25  86 CALM      29.97S
ORANGE CITY    CLOUDY    30  27  86 NW5       29.96S WCI  25
SHELDON        CLOUDY    27  21  80 NW8       29.94S WCI  18
SIOUX CITY     CLOUDY    26  20  77 CALM      29.99R
SPENCER        CLOUDY    25  20  81 NW5       29.94F WCI  19
STORM LAKE     CLOUDY    30  23  74 W13       29.94R WCI  20
$$

ABBREVIATIONS USED IN REMARKS
   TC - TEMPERATURE IN CELSIUS
  WCI - WIND CHILL INDEX
   HX - HEAT INDEX
  VSB - VISIBILITY





USA.gov is the U.S. government's official web portal to all federal, state and local government web resources and services.